User: anonymous   Login
Location: Oberwangen
(47.4286°N, 8.9679°E)
Time: 20:16:15
(UTC+00:00)
Language:

FENGYUN 1C DEB - Orbit

View from above orbital plane
View from above orbital plane
View from above satellite
View from above satellite

Ground track
Ground track

The orbit data is extracted from the following two-line orbital elements,

1 30550U 99025AKQ 22015.61155190  .00000900  00000-0  71014-3 0  9991
2 30550  99.1089 276.8756 0148232 237.3567 243.1180 13.89296870755026
Epoch (UTC): 15 January 2022 14:40:38
Eccentricity: 0.0148232
inclination: 99.1089°
perigee height: 823 km
apogee height: 1039 km
right ascension of ascending node: 276.8756°
argument of perigee: 237.3567°
revolutions per day: 13.89296870
mean anomaly at epoch: 243.1180°
orbit number at epoch: 75502

The dashed part of the orbit path shows where the satellite is in the earth's shadow,  

DLR